Powrót do katalogu

ATLAS 5 CENTAUR DEB

LostHEO
NORAD 46852·DEBRIS·🇺🇸 United States

Wystrzelony Oct 17, 2018 z Cape Canaveral Space Force Station

Loading…

Następne Przeloty (najbliższe 24 godziny)

TLE

NieaktualneSource: Space-Track

Epoka: Jul 19, 2026, 17:37 UTC

1 46852U 18079DH  26200.73424598 -.00000120  00000-0  00000-0 0  9996
2 46852  14.3418  21.1850 4741058 341.2725   5.8574  1.80620807 26399

Śledź ATLAS 5 CENTAUR DEB w czasie rzeczywistym z AllMySat

Download on the App Store